JJA2535 RKSS-RKPC

Flight info

Callsign JJA2535
Flight time N/A
Altitude 28000
Route BULTI2T BULTI Y711 DOTOL DOTOL1M
Aircraft B738/M-SDE2E3FGHIRWXY/LB1

Departure

Time 2026-04-29 09:56
Airport Gimpo International Airport (RKSS)

Arrival

Time N/A
Airport Jeju International Airport (RKPC)
Time Latitude Longitude Altitude Speed Heading
2026-04-29 09:50 37.55057 126.80818 65 ft 0 kts 225°
2026-04-29 09:53 37.55056 126.80817 65 ft 1 kts 225°
2026-04-29 09:54 37.55024 126.80776 61 ft 10 kts 225°
2026-04-29 09:54 37.54973 126.80760 63 ft 5 kts 134°
2026-04-29 09:54 37.54940 126.80803 58 ft 9 kts 135°
2026-04-29 09:54 37.54893 126.80845 59 ft 6 kts 181°
2026-04-29 09:55 37.54873 126.80820 62 ft 9 kts 227°
2026-04-29 09:55 37.54811 126.80734 53 ft 16 kts 237°
2026-04-29 09:55 37.54849 126.80622 57 ft 15 kts 317°
2026-04-29 09:55 37.54995 126.80438 60 ft 58 kts 315°
2026-04-29 09:56 37.55439 126.79879 60 ft 120 kts 315°
2026-04-29 09:56 37.56151 126.78989 138 ft 160 kts 313°
2026-04-29 09:56 37.56937 126.77995 748 ft 162 kts 311°
2026-04-29 09:56 37.57696 126.76981 1515 ft 158 kts 311°
2026-04-29 09:57 37.58471 126.75937 1906 ft 175 kts 312°
2026-04-29 09:57 37.59361 126.74735 2133 ft 199 kts 312°
2026-04-29 09:57 37.60352 126.73392 2314 ft 219 kts 311°
2026-04-29 09:57 37.60994 126.71604 2520 ft 239 kts 275°
2026-04-29 09:58 37.60597 126.69503 2889 ft 258 kts 241°
2026-04-29 09:58 37.59345 126.67837 3474 ft 270 kts 213°
2026-04-29 09:58 37.57587 126.67109 4155 ft 272 kts 184°
2026-04-29 09:58 37.55689 126.67225 4854 ft 275 kts 172°
2026-04-29 09:59 37.52882 126.67785 5830 ft 279 kts 169°
2026-04-29 09:59 37.49026 126.68612 7247 ft 282 kts 170°
2026-04-29 09:59 37.45092 126.69401 8655 ft 287 kts 171°
2026-04-29 09:59 37.41350 126.70113 10141 ft 288 kts 171°
2026-04-29 10:00 37.39340 126.70487 10471 ft 306 kts 171°
2026-04-29 10:00 37.37154 126.70890 10646 ft 328 kts 171°
2026-04-29 10:00 37.34815 126.71318 10808 ft 348 kts 171°
2026-04-29 10:00 37.30314 126.72133 11722 ft 362 kts 171°
2026-04-29 10:01 37.26195 126.72877 12779 ft 368 kts 170°
2026-04-29 10:01 37.21486 126.73724 14041 ft 374 kts 171°
2026-04-29 10:01 37.16282 126.74655 15232 ft 383 kts 173°
2026-04-29 10:01 37.10940 126.75610 16452 ft 390 kts 174°
2026-04-29 10:02 37.05489 126.76584 17637 ft 398 kts 176°
2026-04-29 10:02 36.99946 126.77574 18698 ft 406 kts 177°
2026-04-29 10:02 36.94309 126.78581 19715 ft 410 kts 177°
2026-04-29 10:02 36.88667 126.79586 20632 ft 418 kts 178°
2026-04-29 10:03 36.82866 126.80619 21573 ft 424 kts 178°
2026-04-29 10:03 36.76997 126.81664 22475 ft 429 kts 178°
2026-04-29 10:03 36.72395 126.82472 23152 ft 432 kts 179°
2026-04-29 10:03 36.69402 126.82737 23589 ft 430 kts 185°
2026-04-29 10:04 36.64377 126.82844 24282 ft 430 kts 186°
2026-04-29 10:04 36.60178 126.82935 24874 ft 430 kts 186°
2026-04-29 10:04 36.57181 126.83034 25285 ft 430 kts 186°
2026-04-29 10:04 36.54239 126.83146 25741 ft 429 kts 186°
2026-04-29 10:05 36.51251 126.83271 26081 ft 428 kts 186°
2026-04-29 10:05 36.48262 126.83398 26084 ft 430 kts 186°
2026-04-29 10:05 36.45282 126.83525 26087 ft 426 kts 186°
2026-04-29 10:05 36.42329 126.83650 26090 ft 424 kts 186°
2026-04-29 10:06 36.39375 126.83768 26088 ft 425 kts 187°
2026-04-29 10:06 36.36446 126.83643 26100 ft 418 kts 193°
2026-04-29 10:06 36.33549 126.83310 26091 ft 418 kts 193°
2026-04-29 10:06 36.30648 126.82958 26094 ft 418 kts 193°
2026-04-29 10:07 36.27753 126.82613 26105 ft 418 kts 193°
2026-04-29 10:07 36.24856 126.82279 26102 ft 418 kts 193°
2026-04-29 10:07 36.21986 126.81958 26107 ft 419 kts 193°
2026-04-29 10:07 36.19079 126.81638 26104 ft 419 kts 193°
2026-04-29 10:08 36.16175 126.81318 26107 ft 418 kts 193°
2026-04-29 10:08 36.13263 126.80999 26104 ft 418 kts 193°
2026-04-29 10:08 36.10364 126.80682 26116 ft 418 kts 193°
2026-04-29 10:08 36.07500 126.80370 26109 ft 418 kts 193°
2026-04-29 10:09 36.04595 126.80055 26116 ft 417 kts 193°
2026-04-29 10:09 36.01697 126.79739 26116 ft 417 kts 193°
2026-04-29 10:09 35.98809 126.79425 26115 ft 416 kts 193°
2026-04-29 10:09 35.95920 126.79111 26117 ft 416 kts 193°
2026-04-29 10:10 35.93034 126.78797 26113 ft 416 kts 193°
2026-04-29 10:10 35.90148 126.78484 26115 ft 416 kts 193°
2026-04-29 10:10 35.87268 126.78172 26115 ft 415 kts 193°
2026-04-29 10:10 35.84388 126.77862 26120 ft 415 kts 193°
2026-04-29 10:11 35.81508 126.77552 26122 ft 415 kts 193°
2026-04-29 10:11 35.78655 126.77244 26123 ft 415 kts 193°
2026-04-29 10:11 35.75776 126.76934 26121 ft 415 kts 193°
2026-04-29 10:11 35.72900 126.76625 26124 ft 415 kts 193°
2026-04-29 10:12 35.70015 126.76315 26123 ft 415 kts 193°
2026-04-29 10:12 35.67165 126.76008 26123 ft 415 kts 193°
2026-04-29 10:12 35.64285 126.75699 26125 ft 415 kts 193°
2026-04-29 10:12 35.61406 126.75390 26128 ft 415 kts 193°
2026-04-29 10:13 35.58529 126.75081 26120 ft 415 kts 193°
2026-04-29 10:13 35.55649 126.74773 26127 ft 415 kts 193°
2026-04-29 10:13 35.52764 126.74464 26126 ft 415 kts 193°
2026-04-29 10:13 35.49884 126.74156 26130 ft 415 kts 193°
2026-04-29 10:14 35.47044 126.73853 26127 ft 415 kts 193°
2026-04-29 10:14 35.44168 126.73548 26134 ft 415 kts 193°
2026-04-29 10:14 35.41287 126.73242 26116 ft 415 kts 193°
2026-04-29 10:14 35.38411 126.72938 26113 ft 414 kts 193°
2026-04-29 10:15 35.35542 126.72636 26121 ft 413 kts 193°
2026-04-29 10:15 35.32680 126.72334 26119 ft 412 kts 194°
2026-04-29 10:15 35.29853 126.72034 26119 ft 411 kts 194°
2026-04-29 10:15 35.27003 126.71732 26118 ft 411 kts 194°
2026-04-29 10:16 35.24155 126.71431 26120 ft 410 kts 194°
2026-04-29 10:16 35.22233 126.71228 26123 ft 410 kts 194°
2026-04-29 10:16 35.18462 126.70829 26114 ft 410 kts 194°
2026-04-29 10:16 35.15615 126.70528 26119 ft 410 kts 194°
2026-04-29 10:17 35.12815 126.70240 26096 ft 396 kts 194°
2026-04-29 10:17 35.10104 126.69961 26110 ft 387 kts 194°
2026-04-29 10:17 35.07467 126.69685 26108 ft 383 kts 194°
2026-04-29 10:17 35.04811 126.69401 26117 ft 382 kts 194°
2026-04-29 10:18 35.02165 126.69118 26113 ft 382 kts 194°
2026-04-29 10:18 34.99524 126.68837 26107 ft 373 kts 194°
2026-04-29 10:18 34.96989 126.68577 26105 ft 358 kts 195°
2026-04-29 10:18 34.94549 126.68329 26100 ft 344 kts 195°
2026-04-29 10:19 34.92994 126.68170 26101 ft 334 kts 195°
2026-04-29 10:19 34.90003 126.67861 26098 ft 316 kts 196°
2026-04-29 10:19 34.87855 126.67637 26093 ft 303 kts 197°
2026-04-29 10:19 34.85803 126.67423 26097 ft 289 kts 197°
2026-04-29 10:20 34.84491 126.67286 26094 ft 281 kts 198°
2026-04-29 10:20 34.82585 126.67085 26096 ft 269 kts 198°
2026-04-29 10:20 34.80741 126.66887 26106 ft 265 kts 198°
2026-04-29 10:20 34.78870 126.66674 26123 ft 276 kts 198°
2026-04-29 10:21 34.76917 126.66449 26134 ft 286 kts 197°
2026-04-29 10:21 34.74916 126.66228 26121 ft 289 kts 197°
2026-04-29 10:21 34.72944 126.66023 26107 ft 285 kts 197°
2026-04-29 10:21 34.70972 126.65820 26104 ft 283 kts 197°
2026-04-29 10:22 34.69019 126.65618 26105 ft 280 kts 197°
2026-04-29 10:22 34.67084 126.65417 26107 ft 278 kts 197°
2026-04-29 10:22 34.65158 126.65216 26106 ft 277 kts 197°
2026-04-29 10:22 34.63239 126.65014 26108 ft 277 kts 197°
2026-04-29 10:23 34.61294 126.64804 26123 ft 283 kts 197°
2026-04-29 10:23 34.59316 126.64593 26128 ft 287 kts 197°
2026-04-29 10:23 34.57329 126.64386 26112 ft 286 kts 197°
2026-04-29 10:23 34.55347 126.64181 26107 ft 285 kts 197°
2026-04-29 10:24 34.53398 126.63980 26113 ft 284 kts 197°
2026-04-29 10:24 34.51430 126.63775 26117 ft 283 kts 197°
2026-04-29 10:24 34.49464 126.63569 26118 ft 283 kts 198°
2026-04-29 10:24 34.47502 126.63365 26122 ft 282 kts 197°
2026-04-29 10:25 34.45549 126.63161 26111 ft 282 kts 197°
2026-04-29 10:25 34.43592 126.62957 26132 ft 281 kts 197°
2026-04-29 10:25 34.41645 126.62753 26111 ft 280 kts 197°
2026-04-29 10:25 34.39732 126.62548 26130 ft 280 kts 197°
2026-04-29 10:26 34.37779 126.62336 26126 ft 281 kts 197°
2026-04-29 10:26 34.35830 126.62124 26123 ft 281 kts 197°
2026-04-29 10:26 34.33880 126.61913 26135 ft 282 kts 197°
2026-04-29 10:26 34.31915 126.61701 26127 ft 283 kts 197°
2026-04-29 10:27 34.27997 126.61279 26130 ft 284 kts 197°
2026-04-29 10:27 34.26020 126.61066 26132 ft 285 kts 197°
2026-04-29 10:27 34.24047 126.60853 26128 ft 284 kts 196°
2026-04-29 10:28 34.22080 126.60642 26122 ft 284 kts 196°
2026-04-29 10:28 34.20109 126.60426 26131 ft 283 kts 196°
2026-04-29 10:28 34.18140 126.60213 26131 ft 283 kts 196°
2026-04-29 10:28 34.16204 126.60003 26124 ft 283 kts 197°
2026-04-29 10:29 34.14246 126.59790 26129 ft 281 kts 197°
2026-04-29 10:29 34.12298 126.59579 26129 ft 281 kts 197°
2026-04-29 10:29 34.10349 126.59369 26124 ft 280 kts 197°
2026-04-29 10:29 34.08404 126.59159 26136 ft 280 kts 196°
2026-04-29 10:30 34.06464 126.58950 26130 ft 280 kts 196°
2026-04-29 10:30 34.04521 126.58741 26136 ft 280 kts 196°
2026-04-29 10:30 34.02576 126.58531 26137 ft 281 kts 197°
2026-04-29 10:30 34.00625 126.58318 26140 ft 282 kts 197°
2026-04-29 10:31 33.98666 126.58103 26141 ft 282 kts 197°
2026-04-29 10:31 33.96728 126.57888 26141 ft 283 kts 197°
2026-04-29 10:31 33.94759 126.57667 26141 ft 284 kts 197°
2026-04-29 10:31 33.92790 126.57445 26142 ft 285 kts 197°
2026-04-29 10:32 33.90817 126.57221 26138 ft 285 kts 197°
2026-04-29 10:32 33.88839 126.56995 26139 ft 286 kts 196°
2026-04-29 10:32 33.86857 126.56767 26136 ft 286 kts 197°
2026-04-29 10:32 33.84877 126.56538 26139 ft 286 kts 197°
2026-04-29 10:33 33.82892 126.56308 26135 ft 286 kts 197°
2026-04-29 10:33 33.80909 126.56078 26131 ft 286 kts 196°
2026-04-29 10:33 33.78955 126.55850 26129 ft 285 kts 196°
2026-04-29 10:33 33.76975 126.55620 26131 ft 285 kts 197°
2026-04-29 10:34 33.75000 126.55389 26130 ft 284 kts 197°
2026-04-29 10:34 33.73027 126.55158 26128 ft 284 kts 197°
2026-04-29 10:34 33.71061 126.54927 26130 ft 283 kts 197°
2026-04-29 10:34 33.69122 126.54698 26128 ft 283 kts 197°
2026-04-29 10:35 33.67162 126.54467 26131 ft 283 kts 197°
2026-04-29 10:35 33.65203 126.54233 26130 ft 283 kts 196°
2026-04-29 10:35 33.63245 126.53998 26126 ft 283 kts 196°
2026-04-29 10:35 33.61284 126.53761 26130 ft 283 kts 197°
2026-04-29 10:36 33.59319 126.53521 26128 ft 283 kts 197°
2026-04-29 10:36 33.57360 126.53278 26132 ft 283 kts 197°
2026-04-29 10:36 33.55421 126.53035 26131 ft 283 kts 197°
2026-04-29 10:36 33.53452 126.52787 26131 ft 284 kts 196°
2026-04-29 10:37 33.51479 126.52534 26127 ft 285 kts 196°
2026-04-29 10:37 33.49501 126.52278 26131 ft 285 kts 197°
2026-04-29 10:37 33.47521 126.52019 26130 ft 286 kts 197°
2026-04-29 10:37 33.45570 126.51764 26129 ft 286 kts 197°
2026-04-29 10:38 33.43590 126.51502 26131 ft 286 kts 197°
2026-04-29 10:38 33.41603 126.51237 26128 ft 287 kts 197°
2026-04-29 10:38 33.39619 126.50976 26128 ft 287 kts 197°
2026-04-29 10:38 33.37626 126.50709 26139 ft 287 kts 197°
2026-04-29 10:39 33.35637 126.50438 26132 ft 288 kts 197°
2026-04-29 10:39 33.33645 126.50164 26141 ft 289 kts 197°
2026-04-29 10:39 33.31642 126.49886 26132 ft 289 kts 197°
2026-04-29 10:39 33.29667 126.49611 26131 ft 289 kts 197°
2026-04-29 10:40 33.27664 126.49331 26128 ft 289 kts 197°
2026-04-29 10:40 33.25668 126.49052 26127 ft 288 kts 196°
2026-04-29 10:40 33.23682 126.48775 26126 ft 287 kts 197°
2026-04-29 10:40 33.21690 126.48498 26127 ft 286 kts 197°
2026-04-29 10:41 33.19741 126.48229 26131 ft 285 kts 197°
2026-04-29 10:41 33.17774 126.47961 26129 ft 284 kts 197°
2026-04-29 10:41 33.15817 126.47696 26135 ft 282 kts 197°
2026-04-29 10:41 33.13868 126.47434 26136 ft 282 kts 196°
2026-04-29 10:42 33.11918 126.47174 26133 ft 281 kts 196°
2026-04-29 10:42 33.09971 126.46915 26138 ft 281 kts 196°
2026-04-29 10:42 33.08017 126.46655 26140 ft 282 kts 197°
2026-04-29 10:42 33.06067 126.46396 26143 ft 282 kts 197°
2026-04-29 10:43 33.04115 126.46136 26140 ft 283 kts 197°
2026-04-29 10:43 33.02148 126.45873 26141 ft 284 kts 197°
2026-04-29 10:43 33.00206 126.45613 26140 ft 285 kts 196°
2026-04-29 10:43 32.98230 126.45347 26142 ft 285 kts 197°
2026-04-29 10:44 32.96253 126.45081 26144 ft 286 kts 197°
2026-04-29 10:44 32.94268 126.44813 26142 ft 287 kts 197°
2026-04-29 10:44 32.92281 126.44543 26145 ft 287 kts 197°
2026-04-29 10:44 32.90296 126.44274 26141 ft 287 kts 197°
2026-04-29 10:45 32.88310 126.44006 26140 ft 287 kts 196°
2026-04-29 10:45 32.86623 126.43778 26138 ft 287 kts 197°